Hourly Data Report for November 09, 2019

All times are specified in Local Standard Time (LST). Add 1 hour to adjust for Daylight Saving Time where and when it is observed.

PINAWA
MANITOBA
Current Station Operator: ECCC - MSC

50°10'38.020" N
96°03'53.000" W
268.00 m
503B1ER
71448
WEA

Download Data

Hourly Data (November 2019)
Hourly Data Report for November 9, 2019
TIME Temp Definition
°C
Dew Point Definition
°C
Rel Hum Definition
%
Wind Dir Definition
10's deg

Wind Spd Definition
km/h
Visibility Definition
km
Stn Press Definition
kPa
Hmdx Definition


Wind Chill Definition


Weather Definition


00:00 -3.8 LegendMM LegendMM 24 2   97.75   -5 LegendNANA
01:00 -3.9 LegendMM LegendMM 29 5   97.74   -6 LegendNANA
02:00 -3.7 LegendMM LegendMM 29 10   97.77   -8 LegendNANA
03:00 -3.5 LegendMM LegendMM 29 10   97.78   -7 LegendNANA
04:00 -3.3 LegendMM LegendMM 30 14   97.77   -8 LegendNANA
05:00 -3.6 LegendMM LegendMM 30 12   97.82   -8 LegendNANA
06:00 -3.8 LegendMM LegendMM 29 11   97.82   -8 LegendNANA
07:00 -3.9 LegendMM LegendMM 29 13   97.83   -9 LegendNANA
08:00 -3.9 LegendMM LegendMM 30 12   97.85   -9 LegendNANA
09:00 -3.8 LegendMM LegendMM 30 12   97.90   -8 LegendNANA
10:00 -3.5 LegendMM LegendMM 29 9   97.87   -7 LegendNANA
11:00 -3.3 LegendMM LegendMM 29 17   97.94   -9 LegendNANA
12:00 -3.2 LegendMM LegendMM 30 13   97.93   -8 LegendNANA
13:00 -3.6 LegendMM LegendMM 31 17   97.94   -9 LegendNANA
14:00 -3.5 LegendMM LegendMM 31 17   97.99   -9 LegendNANA
15:00 -3.6 LegendMM LegendMM 32 17   98.03   -9 LegendNANA
16:00 -3.7 LegendMM LegendMM 31 20   98.08   -10 LegendNANA
17:00 -4.2 LegendMM LegendMM 32 17   98.21   -10 LegendNANA
18:00 -4.9 LegendMM LegendMM 33 15   98.31   -10 LegendNANA
19:00 -5.7 LegendMM LegendMM 33 14   98.42   -11 LegendNANA
20:00 -6.7 LegendMM LegendMM 32 22   98.52   -14 LegendNANA
21:00 -8.4 LegendMM LegendMM 34 16   98.66   -15 LegendNANA
22:00 -10.3 LegendMM LegendMM 34 19   98.75   -18 LegendNANA
23:00 -11.7 LegendMM LegendMM 35 17   98.89   -19 LegendNANA

Notes on Data Quality.

Legend

  • E = Estimated
  • M = Missing
  • NA = Not Available
Date modified: